Regional Weather Roundup
Issued by NWS Green Bay, WI

Home | Current Version | Previous Version | Text Only | Print | Product List | Glossary On
Versions: 1 2 3 4 5 6 7 8 9 10 11 12 13 14 15 16 17 18 19 20 21 22 23 24 25 26 27 28 29 30 31 32 33 34 35 36 37 38 39 40 41 42 43 44 45 46 47 48 49 50
000
ASUS43 KGRB 301711
RWRGRB

NORTH-CENTRAL AND NORTHEAST WISCONSIN REGIONAL WEATHER ROUNDUP
NATIONAL WEATHER SERVICE GREEN BAY WI
1200 PM CDT SUN AUG 30 2015

WIZ005-009-010>012-018-019-301800-
NORTH CENTRAL WISCONSIN

CITY           SKY/WX    TMP DP  RH WIND       PRES   REMARKS
IRONWOOD       SUNNY     75  63  64 S13G21    29.93F
MANITOWISH WTR SUNNY     70  63  79 S12       30.02F
ARBOR VITAE    MOSUNNY   72  65  79 S10       30.03F
EAGLE RIVER    SUNNY     69  58  67 SW9       30.03F
LAND O LAKES   SUNNY     72  59  63 SW8       30.03S
RHINELANDER    CLOUDY    68  60  75 S10       30.06F
PHILLIPS       CLOUDY    69  64  82 SW8       30.03S
ANTIGO         CLOUDY    68  61  78 SW9       30.08S
TOMAHAWK       PTSUNNY   67  63  85 CALM      30.06S
MERRILL        CLOUDY    68  63  84 SW9       30.07S
$$

WIZ013-073-301800-
NORTHEAST WISCONSIN

CITY           SKY/WX    TMP DP  RH WIND       PRES   REMARKS
IRON MOUNTAIN  SUNNY     75  61  61 S8        30.01F
MARINETTE      SUNNY     70  61  73 SW10      30.03F
OCONTO         CLOUDY    71  64  79 SW7       30.05F
$$

WIZ017-030-035>037-045-301800-
CENTRAL WISCONSIN

CITY           SKY/WX    TMP DP  RH WIND       PRES   REMARKS
MEDFORD        CLOUDY    69  63  83 S10       30.06S
WAUSAU         CLOUDY    69  62  78 S7        30.05F
MOSINEE        CLOUDY    68  66  94 W6        30.08F
MARSHFIELD     MOSUNNY   72  60  66 SW12      30.07S
WISC RAPIDS    MOSUNNY   72  61  68 SW8       30.08F
STEVENS POINT  CLOUDY    69  60  74 SW6       30.07F
WAUPACA        PTSUNNY   72  63  72 S6        30.08S
SHAWANO        CLOUDY    71  63  74 SW6       30.06F
CLINTONVILLE   PTSUNNY   70  61  73 SW8       30.07S
WAUTOMA        CLOUDY    69  64  84 SW7       30.09S
$$

WIZ038-039-048-051-301800-
FOX VALLEY

CITY           SKY/WX    TMP DP  RH WIND       PRES   REMARKS
NWS GREEN BAY  CLOUDY    70  63  78 SW7       30.07F HAZE
APPLETON       CLOUDY    70  61  73 VRB5      30.07S
OSHKOSH        PTSUNNY   69  62  78 S6        30.07F
FOND DU LAC    CLOUDY    69  62  78 SW5       30.08F
$$

WIZ022-050-052-301800-
EAST CENTRAL WISCONSIN

CITY           SKY/WX    TMP DP  RH WIND       PRES   REMARKS
EPHRAIM        FAIR      71  62  73 W8        30.04F
STURGEON BAY   CLOUDY    70  61  73 W8        30.08F
MANITOWOC      CLOUDY    67  63  87 MISG      30.08F
SHEBOYGAN      PTSUNNY   69  61  75 S6        30.08F
$$

LMZ563-521-522-541>543-301800-
LAKESHORE

STATION/POSITION TIME  TEMP    WIND        PRES    VSBY  WAVE
                       AIR SEA DIR/SP/G                  HT/PER
                 (UTC) (F)     (DEG/KT/KT) (MB)    (MI)  (FT/S)
SHEBOYGAN LKSHOR 1700   55     160/  2/  2 1018.9F
ALGOMA MARINA    1614             CALM       N/A
NORTHPORT PIER   1600   66     150/  8/ 12 1017.6S
N MID LAKE BUOY  1650   64 65  200/ 12/ 14 1017.3F         1/ 3
S GREEN BAY BUOY 1630   64 63  220/  8/  8 1019.5R
SISTER BAY LKSHO 1619   72     270/  8/ 10   N/A
CHAMBERS ISLAND  1600   65     180/  5/  9 1017.9S
$$


USA.gov is the U.S. government's official web portal to all federal, state and local government web resources and services.